Simultaneous Nadir Overpasses (SNOs) Predictions

Prediction of SNOs between GOES-15 and LANDSAT-8 Satellite Orbit:

Table of predicted SNOs for the next 14.0 days since TLE Epoch: 3/5/2022
Index Date Time (GOES-15) GOES-15 Lat,Lon LANDSAT-8 Lat,Lon Distance(km) Time Diff (sec)
1 03/05/2022 18:27:06 0.00,-127.60 -0.87,-123.49 467.83 80
2 03/06/2022 06:45:50 0.00,-127.62 -0.24,-128.68 121.05 80
3 03/08/2022 06:36:19 0.00,-127.71 0.44,-125.73 224.70 80
4 03/08/2022 18:54:54 -0.01,-127.74 0.68,-130.89 358.67 80
5 03/10/2022 18:45:23 -0.01,-127.82 -0.01,-127.94 14.13 80
6 03/12/2022 18:33:11 -0.01,-127.89 -0.65,-124.99 330.71 80
7 03/13/2022 06:51:54 0.02,-127.91 -0.46,-130.18 258.51 80
8 03/15/2022 06:42:22 0.02,-127.98 0.19,-127.23 85.52 80
9 03/15/2022 19:00:57 -0.02,-128.00 0.93,-132.38 498.42 80
10 03/17/2022 06:30:11 0.01,-128.05 0.84,-124.28 429.35 80
11 03/17/2022 18:48:45 -0.02,-128.07 0.28,-129.43 154.64 80
